Location: Namasale
(1.5000°N, 32.6167°E)
Time: 18:11:13
(UTC+00:00)

Vanguard 1 Rocket - Pass Details

Date: 27 April 2021
Orbit: 651 x 4225 km, 34.3° (Epoch: 17 May)

Event Time Altitude Azimuth Distance (km) Brightness Sun altitude
Rises 18:59:01 0° 274° (W) 3,919 11.3 -45.5°
Reaches altitude 10° 19:01:36 10° 263° (W) 3,278 10.7 -46.1°
Enters shadow 19:06:07 28° 230° (SW) 2,720 9.8 -47.2°
Maximum altitude 19:09:00 32° 203° (SSW) 2,859 - -47.9°
Drops below altitude 10° 19:21:56 10° 146° (SSE) 5,738 - -50.8°
Sets 19:28:32 0° 138° (SE) 7,376 - -52.3°
